Weather History for Ottumwa, IA

Change the Weather History Date:

Saturday, November 16, 2013

  Actual Average Record
Temperature  
Mean Temperature 55 °F 39 °F  
Max Temperature 66 °F 49 °F 77 °F (1931)
Min Temperature 44 °F 30 °F 1 °F (1959)
Degree Days  
Heating Degree Days 10 26  
Month to date heating degree days 359 353  
Since 1 July heating degree days 847 877  
Cooling Degree Days 0 0  
Month to date cooling degree days 0 0  
Year to date cooling degree days 1014 938  
Growing Degree Days 6 (Base 50)    
Moisture  
Dew Point 51 °F    
Average Humidity 76    
Maximum Humidity 89    
Minimum Humidity 63    
Precipitation  
Precipitation 0.06 in 0.08 in 1.53 in (2009)
Month to date precipitation 0.84 1.38  
Year to date precipitation 34.96 34.70  
Sea Level Pressure  
Sea Level Pressure 29.54 in    
Wind  
Wind Speed 17 mph (South)    
Max Wind Speed 38 mph    
Max Gust Speed 47 mph    
Visibility 10 miles    
Events Rain , Thunderstorm    
T = Trace of Precipitation, MM = Missing Value Source: NWS Daily Summary

Daily Weather History Graph

Daily Weather History Graph

Search for Another Location

Airport:

Trip Planner

Search our weather history database for the weather conditions in past years. The results will help you decide how hot, cold, wet, or windy it might be!

Date:

Astronomy

Nov. 16, 2013 Rise Set
Actual Time 6:59 AM CST 4:49 PM CST
Civil Twilight 6:29 AM CST 5:19 PM CST
Nautical Twilight 5:55 AM CST 5:52 PM CST
Astronomical Twilight 5:23 AM CST 6:25 PM CST
Moon 4:25 PM CST (11/16) 5:55 AM CST (11/16)
Length of Visible Light 10h 50m
Length of Day
9h 50m
Waxing Gibbous, 99% of the Moon is Illuminated
Nov 16
Waxing Gibbous
Nov 17
Full
Nov 25
Last Quarter
Dec 2
New
Dec 9
First Quarter

Hourly Weather History & Observations

Time (CST) Temp. Windchill Dew Point Humidity Pressure Visibility Wind Dir Wind Speed Gust Speed Precip Events Conditions
12:53 AM 45.0 °F 39.3 °F 39.0 °F 80% 29.75 in 10.0 mi South 11.5 mph 21.9 mph N/A   Clear
1:53 AM 45.0 °F 38.9 °F 39.9 °F 82% 29.76 in 10.0 mi South 12.7 mph - N/A   Mostly Cloudy
2:20 AM 46.4 °F 40.7 °F 41.0 °F 81% 29.75 in 10.0 mi South 12.7 mph - N/A   Overcast
2:53 AM 46.9 °F - 42.1 °F 83% 29.74 in 10.0 mi South 11.5 mph - N/A   Overcast
3:43 AM 46.4 °F 40.7 °F 42.8 °F 87% 29.71 in 10.0 mi South 12.7 mph - N/A   Overcast
3:53 AM 48.0 °F - 43.0 °F 83% 29.70 in 10.0 mi South 12.7 mph - N/A   Overcast
4:53 AM 48.9 °F - 44.1 °F 83% 29.67 in 10.0 mi South 17.3 mph - N/A   Overcast
5:53 AM 48.9 °F - 45.0 °F 86% 29.64 in 10.0 mi South 15.0 mph 21.9 mph N/A   Overcast
6:53 AM 51.1 °F - 46.0 °F 83% 29.63 in 10.0 mi South 18.4 mph - N/A   Overcast
7:53 AM 52.0 °F - 48.0 °F 86% 29.60 in 10.0 mi South 18.4 mph - N/A   Overcast
8:28 AM 53.6 °F - 48.2 °F 82% 29.58 in 10.0 mi SSE 16.1 mph - N/A   Overcast
8:51 AM 53.6 °F - 48.2 °F 82% 29.57 in 10.0 mi SSE 17.3 mph - N/A   Overcast
8:53 AM 54.0 °F - 48.9 °F 83% 29.58 in 10.0 mi SSE 16.1 mph - N/A   Overcast
9:53 AM 55.9 °F - 50.0 °F 80% 29.55 in 10.0 mi South 19.6 mph - N/A   Overcast
10:53 AM 61.0 °F - 53.1 °F 75% 29.53 in 10.0 mi South 21.9 mph 38.0 mph N/A   Overcast
11:51 AM 66.2 °F - 53.6 °F 64% 29.48 in 10.0 mi South 29.9 mph 39.1 mph N/A   Mostly Cloudy
11:53 AM 66.0 °F - 54.0 °F 65% 29.48 in 10.0 mi South 28.8 mph 38.0 mph N/A   Mostly Cloudy
12:09 PM 64.4 °F - 55.4 °F 73% 29.47 in 10.0 mi South 29.9 mph 40.3 mph 0.00 in Rain Light Rain
12:53 PM 63.0 °F - 55.9 °F 78% 29.45 in 9.0 mi SSW 25.3 mph 39.1 mph 0.00 in Rain Light Rain
1:53 PM 63.0 °F - 55.0 °F 75% 29.43 in 10.0 mi South 23.0 mph 29.9 mph 0.00 in   Overcast
2:53 PM 64.9 °F - 55.9 °F 73% 29.42 in 10.0 mi South 26.5 mph 32.2 mph N/A   Overcast
3:37 PM 64.4 °F - 55.4 °F 73% 29.41 in 10.0 mi South 21.9 mph 32.2 mph N/A   Mostly Cloudy
3:53 PM 64.0 °F - 55.0 °F 73% 29.41 in 10.0 mi South 18.4 mph 32.2 mph N/A   Mostly Cloudy
4:53 PM 63.0 °F - 55.0 °F 75% 29.42 in 10.0 mi South 19.6 mph 28.8 mph N/A   Scattered Clouds
5:53 PM 61.0 °F - 55.0 °F 81% 29.44 in 10.0 mi South 17.3 mph - N/A   Partly Cloudy
6:53 PM 61.0 °F - 55.0 °F 81% 29.46 in 10.0 mi South 18.4 mph 25.3 mph N/A   Scattered Clouds
7:53 PM 60.1 °F - 55.0 °F 83% 29.46 in 10.0 mi South 15.0 mph - N/A   Clear
8:53 PM 59.0 °F - 55.0 °F 87% 29.47 in 10.0 mi South 12.7 mph - N/A   Partly Cloudy
9:53 PM 59.0 °F - 55.0 °F 87% 29.45 in 10.0 mi South 11.5 mph - N/A   Scattered Clouds
10:53 PM 59.0 °F - 55.9 °F 90% 29.46 in 6.0 mi South 18.4 mph - 0.03 in Rain Rain
11:09 PM 59.0 °F - 55.4 °F 88% 29.43 in 10.0 mi South 20.7 mph 29.9 mph 0.02 in Rain , Thunderstorm Light Rain
11:24 PM 59.0 °F - 55.4 °F 88% 29.46 in 10.0 mi SSW 15.0 mph - 0.02 in   Overcast
11:53 PM 57.0 °F - 54.0 °F 89% 29.43 in 10.0 mi South 8.1 mph - 0.03 in   Mostly Cloudy